Flag for Germany Weather past 2 weeks in Vreden, North Rhine-Westphalia, Germany

Now
62 °F

Fog.


Feels Like: 62 °F
Forecast: 54 / 67 °F
Wind: 3 mph from Southwest

Location: Twenthe

Current Time: Sep 30, 2014 at 8:31:04 PM

Latest Report: Sep 30, 2014 at 7:00 PM


Visibility: 4 mi

Pressure: 30.26 "Hg

Humidity: 87%

Dew point: 58 °F

Location of VredenLocation

Historic Weather in Vreden — Graph

°F

Vreden temperature yesterday

Maximum temperature yesterday: 70 °F (at 1:00 PM)
Minimum temperature yesterday: 52 °F (at 4:00 AM)
Average temperature yesterday: 61 °F

Past Weeks' High & Low Weather Summary

 TemperatureHumidityPressure
High78 °F (Sep 18, 4:00 PM)100% (Sep 19, 5:00 AM)30.39 "Hg (Sep 19, 5:00 AM)
Low39 °F (Sep 23, 8:00 AM)46% (Sep 22, 4:00 PM)29.80 "Hg (Sep 24, 5:00 PM)
Average60 °F85%30.06 "Hg
* Reported Sep 15 7:00 PM — Sep 30 7:00 PM, Vreden, Weather by CustomWeather, © 2014

Note: Actual official high and low records may vary slightly from our data, if they occured in-between our weather recording intervals... More about our weather records

Advertising

Vreden weather history for previous 24 hours

 ConditionsComfort  
Time TempWeatherWind HumidityBarometerVisibility
7:00 PM
Sep 30
62 °FFog.3 mph87%30.26 "Hg4 mi
6:00 PM65 °FScattered clouds.3 mph80%30.25 "Hg5 mi
5:00 PM65 °FPartly sunny.3 mph80%30.25 "Hg5 mi
4:00 PM66 °FOvercast.3 mph75%30.25 "Hg6 mi
3:00 PM68 °FPartly sunny.5 mph69%30.25 "Hg8 mi
2:00 PM65 °FPassing clouds.5 mph73%30.25 "Hg6 mi
1:00 PM66 °FScattered clouds.7 mph75%30.25 "Hg5 mi
12:00 PM64 °FFog.5 mph83%30.24 "Hg4 mi
11:00 AM63 °FFog.5 mph88%30.24 "Hg3 mi
10:00 AM61 °FFog.5 mph91%30.23 "Hg3 mi
9:00 AM61 °FFog.3 mph96%30.22 "Hg2 mi
8:00 AM61 °FFog.5 mph97%30.21 "Hg1 mi
7:00 AM60 °FFog.3 mph97%30.19 "Hg1 mi
6:00 AM60 °FFog.3 mph97%30.19 "Hg2 mi
5:00 AM60 °FLow clouds.3 mph97%30.18 "Hg2 mi
4:00 AM60 °FLight freezing rain. Low clouds.3 mph96%30.19 "Hg2 mi
3:00 AM60 °FOvercast.2 mph96%30.19 "Hg2 mi
2:00 AM60 °FFog.2 mph96%30.19 "Hg2 mi
1:00 AM60 °FFog.3 mph96%30.19 "Hg3 mi
12:00 AM61 °FFog.2 mph96%30.19 "Hg2 mi
11:00 PM
Sep 29
62 °FFog.5 mph95%30.20 "Hg2 mi
10:00 PM62 °FLow clouds.2 mph98%30.19 "Hg1 mi
9:00 PM62 °FPassing clouds.1 mph98%30.19 "Hg1 mi
8:00 PM62 °FLight rain. Passing clouds.1 mph98%30.19 "Hg2 mi
Weather by CustomWeather, © 2014

See weather overviewHow to use our weather pages